Location: Chamerau
(49.1969°N, 12.7525°E)
Time: 05:47:44
(UTC+00:00)

ERS-1 Rocket - Pass Details

Date: 18 September 2020
Orbit: 754 x 757 km, 98.5° (Epoch: 22 October)

Event Time Altitude Azimuth Distance (km) Brightness Sun altitude
Exits shadow 19:17:23 20° 60° (ENE) 1,684 4.5 -20.0°
Maximum altitude 19:17:30 20° 58° (ENE) 1,683 4.5 -20.0°
Drops below altitude 10° 19:21:08 10° 12° (NNE) 2,296 5.7 -20.6°
Sets 19:23:57 0° 356° (N) 3,226 6.7 -21.0°
